Погода в Чандрапуре

Индия     19°56′37″N   79°18′44″E
темп.,
°C
ветер,
м/с
пор.,
м/с
влажн.,
%
обл.,
%
осадки,
мм/ч
давл.,
гПа
погр.,
м
4 декабря, сб
сб423:30+19св2355100 0.0 101448
02:30+17св2362100 0.0 101354
05:30+16св236713 0.0 101356
08:30+21св24582 0.0 1015267
11:30+28св34405 0.0 1014983
14:30+30св333557 0.0 10101371
17:30+24с33505 0.0 101136
20:30+22ссв235268 0.0 101337
5 декабря, вс
вс523:30+20св22605 0.0 101316
02:30+18св116745 0.0 101212
05:30+17св22773 0.0 101333
08:30+22всв25650 0.0 1015309
11:30+29всв34400 0.0 10131097
14:30+31ссв23310 0.0 10091671
17:30+25с33460 0.0 101132
20:30+22ссв22500 0.0 101317
6 декабря, пн
пн623:30+20всв12560 0.0 101312
02:30+19св11595 0.0 101211
05:30+18св11620 0.0 101312
08:30+22св23550 0.0 1015212
11:30+30всв12441 0.0 10131066
14:30+31ссз23350 0.0 10102099
17:30+26с33500 0.0 101142
20:30+23с22560 0.0 101412
7 декабря, вт
вт723:30+21сз11570 0.0 101311
02:30+20ссв22610 0.0 101219
05:30+18ссв22660 0.0 101329
08:30+22св23540 0.0 1016268
11:30+29всв23390 0.0 10141031
14:30+31св22310 0.0 10112239
17:30+25с23470 0.0 101241
20:30+23ссз11510 0.0 101412
8 декабря, ср
ср823:30+21св11573 0.0 101411
02:30+19ссв23602 0.0 101344
05:30+18ссв11645 0.0 101412
08:30+22всв24565 0.0 1016259
11:30+29в234110 0.0 10151080
14:30+31юв2233100 0.0 10122334
17:30+25ююв2247100 0.0 101224
20:30+23сз1153100 0.0 101511